Location: El Álamo
(40.2307°N, 3.9945°W)
Time: 03:40:52
(UTC+00:00)

Cosmos 1238 Rocket - Pass Details

Date: 19 May 2025
Orbit: 356 x 776 km, 82.9° (Epoch: 23 June)

Event Time Altitude Azimuth Distance (km) Brightness Sun altitude
Exits shadow 21:25:02 24° 73° (ENE) 1,064 4.0 -18.3°
Drops below altitude 10° 21:27:17 10° 35° (NE) 1,613 5.4 -18.6°
Sets 21:29:27 0° 22° (NNE) 2,423 6.5 -18.8°
